This is the latest recevied weather packets stored in our database for station/object KM6YFK-13. If no packets are shown the sender has not sent any weather packets the latest 10 day(s).
| Time | Temp. | Humidity | Pressure | Rain* | Wind** | Luminosity | Snow |
|---|---|---|---|---|---|---|---|
| 1777569211 | 28.33° C | 55% | 1011.2 hPa | 0 mm | - | 651 W/m² | - |
| 1777568908 | 28.33° C | 55% | 1011.1 hPa | 0 mm | - | 324 W/m² | - |
| 1777568609 | 28.33° C | 54% | 1011.3 hPa | 0 mm | - | 803 W/m² | - |
| 1777568308 | 28.33° C | 54% | 1011.3 hPa | 0 mm | - | 280 W/m² | - |
| 1777568009 | 28.33° C | 55% | 1011.4 hPa | 0 mm | - | 931 W/m² | - |
| 1777567708 | 28.33° C | 54% | 1011.4 hPa | 0 mm | - | 1046 W/m² | - |
| 1777567408 | 28.33° C | 56% | 1011.3 hPa | 0 mm | - | 1063 W/m² | - |
| 1777567107 | 28.33° C | 56% | 1011.4 hPa | 0 mm | - | 536 W/m² | - |
| 1777566809 | 28.33° C | 58% | 1011.5 hPa | 0 mm | - | 946 W/m² | - |
| 1777566507 | 28.33° C | 58% | 1011.6 hPa | 0 mm | - | 1077 W/m² | - |
| 1777566208 | 27.78° C | 60% | 1011.7 hPa | 0 mm | - | 1046 W/m² | - |
| 1777565908 | 27.78° C | 61% | 1011.9 hPa | 0 mm | - | 981 W/m² | - |
| 1777565608 | 27.22° C | 61% | 1011.9 hPa | 0 mm | - | 985 W/m² | - |
| 1777565308 | 27.22° C | 65% | 1012 hPa | 0 mm | - | 928 W/m² | - |
| 1777565007 | 27.22° C | 66% | 1012 hPa | 0 mm | - | 194 W/m² | - |
| 1777564709 | 27.22° C | 66% | 1011.9 hPa | 0 mm | - | 476 W/m² | - |
| 1777564408 | 27.78° C | 64% | 1011.8 hPa | 0 mm | - | 516 W/m² | - |
| 1777564108 | 27.22° C | 65% | 1011.7 hPa | 0 mm | - | 965 W/m² | - |
| 1777563807 | 27.22° C | 67% | 1011.8 hPa | 0 mm | - | 891 W/m² | - |
| 1777563508 | 26.67° C | 67% | 1012 hPa | 0 mm | - | 971 W/m² | - |
| 1777563212 | 26.67° C | 69% | 1011.9 hPa | 0 mm | - | 403 W/m² | - |
| 1777562907 | 26.67° C | 68% | 1012 hPa | 0 mm | - | 882 W/m² | - |
| 1777562609 | 26.67° C | 70% | 1012 hPa | 0 mm | - | 633 W/m² | - |
| 1777562308 | 26.11° C | 72% | 1011.8 hPa | 0 mm | - | 576 W/m² | - |
| 1777562008 | 25.56° C | 73% | 1011.8 hPa | 0 mm | - | 198 W/m² | - |
* Rain latest hour (hover to see other rain measurements)
** Current wind speed in m/s (hover to see current wind gust speed)